Погода в Зеленой Поляне

Россия / Алтайский край     52°52′59″N   84°44′17″E
темп.,
°C
ветер,
м/с
пор.,
м/с
влажн.,
%
обл.,
%
осадки,
мм/ч
давл.,
гПа
погр.,
м
20 мая, пт
пт2001:00+14юз36915 9.5 1013134
04:00+12зюз39825 0.0 1015178
07:00+13юз25795 0.0 1016141
10:00+19юз46465 0.0 10171097
13:00+22зюз57284 0.0 10152745
16:00+23з58288 0.0 10142982
19:00+21зюз353755 0.0 1014217
22:00+16юз22455 0.0 101511
21 мая, сб
сб2101:00+15ююз224895 0.0 101515
04:00+13ю375498 0.0 1014104
07:00+13юз276014 0.0 1015200
10:00+20юз36395 0.0 1015537
13:00+24юз23306 0.0 10141865
16:00+25юв22296 0.0 10112018
19:00+24вюв24400 0.0 1010369
22:00+18в47507 0.0 100998
22 мая, вс
вс2201:00+16всв4115683 0.0 1007175
04:00+16в51356100 0.0 1004230
07:00+16в51560100 0.0 1002302
10:00+19юв3554100 0.0 1002279
13:00+25зюз2539100 0.0 1002583
16:00+22зюз71250100 0.0 1003438
19:00+23вюв255264 0.1 1003203
22:00+18зюз61174100 0.4 1007289
23 мая, пн
пн2301:00+16з51386100 0.8 1009414
04:00+15зсз71374100 0.1 1013685
07:00+12зсз31058100 0.3 1019690
10:00+12юз3569100 0.0 1022344
13:00+15ю3349100 0.0 10231109
16:00+16ююв3350100 0.0 10231129
19:00+15вюв33520 0.0 1022810
22:00+11в37760 0.0 1021121
24 мая, вт
вт2401:00+9всв38820 0.0 1020140
04:00+8всв38780 0.0 1020142
07:00+9св4978100 0.0 1019206
10:00+15св3463100 0.0 1018438
13:00+21св455473 0.0 1016982
16:00+23св554889 0.0 10141508
19:00+22ссв365352 0.0 1014355
22:00+16ссв41048100 0.0 1015180